Regional Weather Roundup
Issued by NWS

Home | Current Version | Previous Version | Text Only | Print | Product List | Glossary On
Versions: 1 2 3 4 5 6 7 8 9 10 11 12 13 14 15 16 17 18 19 20 21 22 23 24 25 26 27 28 29 30 31 32 33 34 35 36 37 38 39 40 41 42 43 44 45 46 47 48 49 50
000
ASUS43 KMKX 311811
RWRWI

WISCONSIN REGIONAL WEATHER ROUNDUP
NATIONAL WEATHER SERVICE MILWAUKEE/SULLIVAN WI
100 PM CDT MON AUG 31 2015

NOTE: "FAIR" INDICATES FEW OR NO CLOUDS BELOW 12,000 FEET WITH NO
SIGNIFICANT WEATHER AND/OR OBSTRUCTIONS TO VISIBILITY.

WIZ001-002-006>008-014>016-023>028-311900-
NORTHWEST WISCONSIN

CITY           SKY/WX    TMP DP  RH WIND       PRES   REMARKS
SUPERIOR ARPT  SUNNY     79  68  67 S15G21    29.85F HX  81
6HR MIN TEMP:  53; 6HR MAX TEMP:  79;

ASHLAND        SUNNY     80  67  64 SW13G18   29.90F HX  82
6HR MIN TEMP:  61; 6HR MAX TEMP:  80;

HAYWARD        PTSUNNY   75  66  73 S12       29.96F
6HR MIN TEMP:  64; 6HR MAX TEMP:  75;

SIREN          MOSUNNY   80  67  64 S14       29.92F HX  82
6HR MIN TEMP:  61; 6HR MAX TEMP:  80;

CUMBERLAND     CLOUDY    73  68  83 S14       29.96F
RICE LAKE      CLOUDY    74  67  79 S9        29.98F
6HR MIN TEMP:  64; 6HR MAX TEMP:  74;

CHETEK         CLOUDY   N/A N/A N/A S9        29.98F
LADYSMITH      CLOUDY    72  67  85 S9        30.01F
6HR MIN TEMP:  63; 6HR MAX TEMP:  72;

EAU CLAIRE     CLOUDY    75  67  76 S10       29.98F
6HR MIN TEMP:  63; 6HR MAX TEMP:  75;

MENOMONIE      CLOUDY    76  69  79 S9        29.98S
6HR MIN TEMP:  62; 6HR MAX TEMP:  77;

NEW RICHMOND   PTSUNNY   79  70  75 S13       29.95F HX  81
6HR MIN TEMP:  65; 6HR MAX TEMP:  79;

OSCEOLA        PTSUNNY   78  73  82 S13       29.96S HX  81
6HR MIN TEMP:  65; 6HR MAX TEMP:  78;

$$

WIZ003>005-009-010-017-018-311900-
NORTH CENTRAL WISCONSIN

CITY           SKY/WX    TMP DP  RH WIND       PRES   REMARKS
MANITOWISH WTR SUNNY     77  66  68 S9        29.99S
6HR MIN TEMP:  63; 6HR MAX TEMP:  77;

ARBOR VITAE    SUNNY     77  65  67 S9        30.00S
6HR MIN TEMP:  63; 6HR MAX TEMP:  77;

WOODRUFF       SUNNY     77  65  67 S9        30.00S
6HR MIN TEMP:  63; 6HR MAX TEMP:  77;

RHINELANDER    SUNNY     75  63  66 SW10      30.02F
6HR MIN TEMP:  64; 6HR MAX TEMP:  75;

EAGLE RIVER    SUNNY     77  61  57 SW10      30.00F
6HR MIN TEMP:  63; 6HR MAX TEMP:  77;

LAND O LAKES   SUNNY     80  61  53 SW10      30.00S HX  81
6HR MIN TEMP:  63; 6HR MAX TEMP:  80;

PHILLIPS       CLOUDY    71  66  84 SW10      30.00F
6HR MIN TEMP:  63; 6HR MAX TEMP:  71;

TOMAHAWK       SUNNY     73  64  73 S5        30.02F
6HR MIN TEMP:  62; 6HR MAX TEMP:  73;

MEDFORD        CLOUDY    71  66  85 S8        30.03S
6HR MIN TEMP:  61; 6HR MAX TEMP:  71;

MERRILL        CLOUDY    71  66  83 SW7       30.03F
6HR MIN TEMP:  62; 6HR MAX TEMP:  72;

$$

WIZ029-030-035-036-043>047-311900-
CENTRAL WISCONSIN

CITY           SKY/WX    TMP DP  RH WIND       PRES   REMARKS
WAUSAU         CLOUDY    70  66  87 S7        30.02F
6HR MIN TEMP:  62; 6HR MAX TEMP:  70;

MOSINEE        CLOUDY    70  70 100 SW10      30.04F
MARSHFIELD     CLOUDY    72  65  78 SW9       30.03F
6HR MIN TEMP:  60; 6HR MAX TEMP:  72;

STEVENS POINT  CLOUDY    71  65  82 SW9       30.04F HAZE
6HR MIN TEMP:  60; 6HR MAX TEMP:  71;

WAUPACA        CLOUDY    78  69  74 SW3       30.03F
6HR MIN TEMP:  61; 6HR MAX TEMP:  78;

WAUTOMA        CLOUDY    78  68  71 W6        30.04F HX  80
6HR MIN TEMP:  60; 6HR MAX TEMP:  78;

WISC RAPIDS    CLOUDY    75  65  70 SW8       30.04F
6HR MIN TEMP:  62; 6HR MAX TEMP:  75;

CAMP DOUGLAS   PTSUNNY   77  77 100 S8        30.02F
$$

WIZ011>013-019>022-031-037>040-048>050-311900-
NORTHEAST WISCONSIN

CITY           SKY/WX    TMP DP  RH WIND       PRES   REMARKS
ANTIGO         CLOUDY    72  66  81 SW8       30.04F
SHAWANO        CLOUDY    74  66  77 SW8       30.03F
6HR MIN TEMP:  64; 6HR MAX TEMP:  74;

OCONTO         PTSUNNY   74  68  80 SW9       30.01F
6HR MIN TEMP:  60; 6HR MAX TEMP:  74;

STURGEON BAY   CLOUDY    70  63  78 SW9       30.05S
6HR MIN TEMP:  64; 6HR MAX TEMP:  70;

GREEN BAY      CLOUDY    75  67  76 SW9       30.03F
6HR MIN TEMP:  62; 6HR MAX TEMP:  75;

MANITOWOC      CLOUDY    77  66  68 MISG      30.04F
6HR MIN TEMP:  56; 6HR MAX TEMP:  77;

APPLETON       PTSUNNY   73  64  73 SW12      30.04F
CLINTONVILLE   CLOUDY    70  64  83 W7        30.03F
OSHKOSH        PTSUNNY   73  65  75 VRB7      30.04F
6HR MIN TEMP:  59; 6HR MAX TEMP:  74;

$$

WIZ032>034-041-042-053>061-311900-
SOUTHWEST WISCONSIN

CITY           SKY/WX    TMP DP  RH WIND       PRES   REMARKS
LA CROSSE      SUNNY     80  69  69 S10       29.99F HX  83
6HR MIN TEMP:  65; 6HR MAX TEMP:  80;

SPARTA         PTSUNNY   78  67  67 S7        30.02F HX  80
6HR MIN TEMP:  59; 6HR MAX TEMP:  79;

VIROQUA          N/A     79  69  71 S9        30.04F HX  81
6HR MIN TEMP:  62; 6HR MAX TEMP:  79;

BOSCOBEL       MOSUNNY   84  70  62 SW10      30.02F HX  88
6HR MIN TEMP:  60; 6HR MAX TEMP:  84;

PRAIRIE DU CHI MOSUNNY   81  69  65 S3        30.01F HX  84
6HR MIN TEMP:  58; 6HR MAX TEMP:  81;

PLATTEVILLE    SUNNY     80  73  78 S9        30.05F HX  84
6HR MIN TEMP:  60; 6HR MAX TEMP:  80;

$$

WIZ056-057-062-063-064-067-068-311900-
SOUTH CENTRAL WISCONSIN

CITY           SKY/WX    TMP DP  RH WIND       PRES   REMARKS
REEDSBURG      CLOUDY    79  70  73 S9        30.03F HX  81
6HR MIN TEMP:  61; 6HR MAX TEMP:  79;

BARABOO/DELLS  CLOUDY    79  66  64 SW5       30.04F HX  81
LONE ROCK      MOSUNNY   80  69  69 S7        30.03F HX  83
6HR MIN TEMP:  60; 6HR MAX TEMP:  81;

MINERAL POINT  PTSUNNY   81  70  69 S7        30.06F HX  84
MADISON        PTSUNNY   79  68  69 VRB3      30.05F HX  81
6HR MIN TEMP:  58; 6HR MAX TEMP:  79;

MIDDLETON      MOSUNNY   81  68  63 S8        30.05F HX  84
6HR MIN TEMP:  60; 6HR MAX TEMP:  81;

WATERTOWN      PTSUNNY   78  70  75 SW3       30.06S HX  80
6HR MIN TEMP:  55; 6HR MAX TEMP:  78;

MONROE         PTSUNNY   79  68  69 S7        30.06F HX  81
JANESVILLE     PTSUNNY   81  68  65 S6        30.06S HX  83
$$

WIZ051-052-058>065-066-070>072-311900-
SOUTHEAST WISCONSIN

CITY           SKY/WX    TMP DP  RH WIND       PRES   REMARKS
MILWAUKEE      PTSUNNY   76  65  68 W6        30.06F
6HR MIN TEMP:  61; 6HR MAX TEMP:  77;

WAUKESHA       PTSUNNY   73  64  73 S3        30.09F
MILWAUKEE/TIMM PTSUNNY   75  63  64 W5        30.07F
RACINE         MOSUNNY   78  66  66 E6        30.07F HX  80
6HR MIN TEMP:  61; 6HR MAX TEMP:  77;

BURLINGTON     MOSUNNY   78  65  63 SW6       30.07S HX  80
6HR MIN TEMP:  56; 6HR MAX TEMP:  78;

KENOSHA        MOSUNNY   80  69  69 VRB5      30.07F HX  83
6HR MIN TEMP:  61; 6HR MAX TEMP:  80;

FOND DU LAC    CLOUDY    75  66  73 SW8       30.05F HAZE
6HR MIN TEMP:  61; 6HR MAX TEMP:  74;

SHEBOYGAN      PTSUNNY   77  67  71 W8        30.05F
6HR MIN TEMP:  57; 6HR MAX TEMP:  77;

WEST BEND      PTSUNNY   73  63  68 CALM      30.07F
JUNEAU         PTSUNNY   75  67  76 S7        30.07F
6HR MIN TEMP:  56; 6HR MAX TEMP:  75; 6HR PCP:  0.01;

$$

LSZ147-162-311900-
LAKE SUPERIOR

STATION/POSITION TIME  TEMP    WIND        PRES    WAVE
                       AIR SEA DIR/SP/G            HT/PER
                 (UTC) (F)     (DEG/KT/KT) (MB)    (FT/S)
W MID LAKE BUOY  1750   61 57  160/  6/  6 1012.0F   1
DEVILS ISLAND    1800   69     310/  4/  5 1011.5F
PORT WING        1700   77     200/ 11/ 16 1012.2F
SAXON HARBOR     1700   79     190/  9/ 15 1012.2
$$

LMZ867-665-643>646-311900-
LAKE MICHIGAN

STATION/POSITION TIME  TEMP    WIND        PRES    WAVE
                       AIR SEA DIR/SP/G            HT/PER
                 (UTC) (F)     (DEG/KT/KT) (MB)    (FT/S)
CHAMBERS ISLAND  1700   67     190/  6/ 10 1016.6S
S GREEN BAY BUOY 1700   65 63  220/  6/  8 1018.4F



USA.gov is the U.S. government's official web portal to all federal, state and local government web resources and services.